Location: Mentone
(34.5413°N, 85.5351°W)
Time: 11:27:45
(UTC-05:00)

Vanguard 1 - Visible Passes

Search period start: 30 May 2016 00:00
Search period end: 09 June 2016 00:00
Orbit: 650 x 3834 km, 34.2° (Epoch: 29 May)

Date Brightness Start Highest point End Pass type
(mag) Time Alt. Az. Time Alt. Az. Time Alt. Az.
30 May 11.7 00:12:31 10° W 00:17:22 27° W 00:17:22 27° W visible
30 May 10.8 22:07:52 10° W 22:21:15 79° SSW 22:24:26 42° ESE visible
31 May 12.2 00:34:25 10° W 00:37:09 18° W 00:37:09 18° W visible
31 May 11.8 20:01:20 10° W 20:19:56 89° S 20:29:39 10° E visible
31 May 10.6 22:29:42 10° W 22:42:21 69° SSW 22:44:13 54° SE visible
01 Jun 12.7 00:56:45 10° W 00:56:55 10° W 00:56:55 10° W visible
01 Jun 11.7 20:23:24 10° W 20:41:23 89° S 20:50:42 10° E visible
01 Jun 10.7 22:51:30 10° WNW 23:03:18 56° SSW 23:03:59 55° S visible
02 Jun 11.5 20:45:27 10° W 21:02:47 86° S 21:11:02 14° ESE visible
02 Jun 11.2 23:13:22 10° W 23:23:45 43° SW 23:23:45 43° SW visible
03 Jun 11.4 21:07:27 10° W 21:24:05 79° SSW 21:30:48 21° ESE visible
03 Jun 11.7 23:35:23 10° W 23:43:31 31° SW 23:43:31 31° SW visible
04 Jun 11.4 21:29:24 10° WNW 21:45:16 70° SSW 21:50:34 29° SE visible
04 Jun 12.2 23:57:45 10° W 00:03:16 21° WSW 00:03:16 21° WSW visible
05 Jun 11.3 21:51:20 10° WNW 22:06:16 59° SSW 22:10:20 35° SSE visible
06 Jun 12.7 00:21:01 10° W 00:23:02 13° WSW 00:23:02 13° WSW visible
06 Jun 11.3 22:13:19 10° WNW 22:27:06 47° SW 22:30:06 37° S visible
07 Jun 12.0 20:06:30 10° W 20:26:16 80° SSW 20:36:50 10° ESE visible
07 Jun 11.6 22:35:26 10° W 22:47:42 36° SW 22:49:52 33° SSW visible
08 Jun 11.9 20:28:31 10° WNW 20:47:33 72° SSW 20:56:57 14° ESE visible
08 Jun 12.0 22:57:52 10° W 23:08:08 26° SW 23:09:40 25° SW visible
